Regional Weather Roundup
Issued by NWS Newport/Morehead, NC

Current Version | Previous Version | Graphics & Text | Print | Product List | Glossary Off
Versions: 1 2 3 4 5 6 7 8 9 10 11 12 13 14 15 16 17 18 19 20 21 22 23 24 25 26 27 28 29 30 31 32 33 34 35 36 37 38 39 40 41 42 43 44 45 46 47 48 49 50

583
ASUS42 KMHX 291525
RWRMHX
WEATHER ROUNDUP FOR EASTERN NORTH CAROLINA
NATIONAL WEATHER SERVICE NEWPORT/MOREHEAD CITY NC
1100 AM EDT FRI JUL 29 2016

NOTE: "FAIR" INDICATES FEW OR NO CLOUDS BELOW 12,000 FEET
WITH NO SIGNIFICANT WEATHER AND/OR OBSTRUCTIONS TO VISIBILITY

NCZ015>017-031-032-045>047-102-103-291600-
NORTH COAST

CITY           SKY/WX    TMP DP  RH WIND       PRES   REMARKS
EDENTON        SUNNY     89  71  54 W6        29.88S
ELIZABETH CITY SUNNY     88  72  58 W10       29.87R
KITTY HAWK     SUNNY     91  73  54 W9        29.87R
MANTEO           N/A     88  75  66 W9        29.88R

$$

NCZ045>047-081-094-103-104-291600-
CENTRAL COAST

CITY           SKY/WX    TMP DP  RH WIND       PRES   REMARKS
FRISCO         SUNNY     85  78  80 SW9       29.90S

$$

NCZ095-097-098-100-101-291600-
SOUTHERN COAST

CITY           SKY/WX    TMP DP  RH WIND       PRES   REMARKS
BEAUFORT       SUNNY     87  76  69 SW18      29.91S
CEDAR ISLAND   NOT AVBL
JACKSONVILLE   MOSUNNY   90  71  53 W14G22    29.90S
PINEY ISLAND   NOT AVBL
WILMINGTON     SUNNY     90  71  53 W20G26    29.92S


$$

NCZ011>013-027>030-043-044-078>080-089-090>093-098-291600-
COASTAL PLAIN

CITY           SKY/WX    TMP DP  RH WIND       PRES   REMARKS
AHOSKIE        SUNNY     83  73  71 CALM      29.89S
CLINTON        SUNNY     88  74  63 W9        29.92F
ELIZABETHTOWN  SUNNY     88  71  57 W10G16    29.93S
GOLDSBORO      MOSUNNY   89  73  58 W9        29.89S
GREENVILLE     SUNNY     88  73  62 NW8       29.92R
HAVELOCK       SUNNY     91  72  53 SW20G25   29.91R
KENANSVILLE    NOT AVBL
KINSTON        MOSUNNY   88  72  58 W8        29.91S
NEW BERN       SUNNY     89  73  59 W13       29.91S
RICHLANDS      MOSUNNY   92  75  57 W10       29.91S HX 103
ROCKY MOUNT    MOSUNNY   87  73  62 N8        29.90S
WASHINGTON     MOSUNNY   86  74  66 W7        29.89S
WHITEVILLE     SUNNY     88  72  58 W6        29.93S

$$

AMZ130-135-150-152-154-156-158-170-250-252-270-ANZ085-086-088-633-658-670-291600-
MARINE OBSERVATIONS

STATION/POSITION TIME  TEMP    WIND        PRES    WAVE   SWELL
                       AIR SEA DIR/SP/G            HT/PER HT/PER
                 (UTC) (F)     (DEG/KT/KT) (MB)    (FT/S) (FT/S)
CHESAPEAKE LIGHT NOT AVBL
64 E VA BEACH    1450   83 83  240/ 12/ 14 1011.1    3/ 6   2/ 6
DUCK             1500   85 67  250/ 12/ 14 1010.9
2 E DUCK         1411      74                N/A     1/ 2
OREGON INLET     1500   87 84  230/ 11/ 13 1011.7
13E OREGON INLT  1500      81                N/A     3/ 6   2/ 6
HATTERAS CG      1500   85 83  210/  8/ 13 1012.2
DIAMOND BUOY     1450   85 85  240/ 16/ 16 1012.9    4/ 6   2/ 9
CAPE LOOKOUT     1500   87     230/ 12/ 17 1012.8
BEAUFORT LAB     1500   87 82  220/  7/ 12 1012.2
30 SE NEW RVR IN 1508   85 85  230/ 14/ 17 1013.4
30 SE NEW RVR IN 1425      85                N/A     4/ 6
27 SE WRIGHTSVLE 1508   85 84  230/ 16/ 19 1013.7
5 SE WRIGHTSVLE  1508   86 80  270/ 14/ 19 1013.9
225 S CAPE HAT   1450   84 85  230/  8/ 10 1016.7    3/ 6   3/ 6
41 SE CHARLESTON 1450   85 85  260/ 10/ 14 1015.2    4/ 6   3/ 6

$$




USA.gov is the U.S. government's official web portal to all federal, state and local government web resources and services.